Regional Weather Roundup
Issued by NWS

Home | Current Version | Previous Version | Graphics & Text | Print | Product List | Glossary On
Versions: 1 2 3 4 5 6 7 8 9 10 11 12 13 14 15 16 17 18 19 20 21 22 23 24 25 26 27 28 29 30 31 32 33 34 35 36 37 38 39 40 41 42 43 44 45 46 47 48 49 50
000
ASUS45 KTFX 040119
RWRMT
MONTANA REGIONAL WEATHER ROUNDUP
NATIONAL WEATHER SERVICE GREAT FALLS MT
700 PM MDT THU SEP 03 2015

NOTE: "FAIR" INDICATES FEW OR NO CLOUDS BELOW 12000 FEET WITH NO
SIGNIFICANT WEATHER AND/OR OBSTRUCTIONS TO VISIBILITY.

MTZ001>007-043-040200-
WEST OF THE DIVIDE

CITY           SKY/WX    TMP DP  RH WIND       PRES   REMARKS
KALISPELL      CLOUDY    53  48  83 E6        29.95S
MISSOULA       CLOUDY    53  46  77 E7        29.98S
BUTTE          CLOUDY    55  36  48 W12       29.95R
MULLAN PASS    CLOUDY    43  37  79 VRB3      29.99S
DEER LODGE       N/A     50  37  62 NW20G26   30.01R
EUREKA           N/A     64  39  39 CALM      29.91S
HAMILTON         N/A     52  48  87 N3        29.98S
LIBBY            N/A     64  34  32 N6        29.91S
PLAINS           N/A     61  41  47 NW6       29.94S
RONAN            N/A     55  48  77 SE2       30.00S
$$

MTZ008-052>055-040200-
SOUTHWEST MONTANA

CITY           SKY/WX    TMP DP  RH WIND       PRES   REMARKS
BOZEMAN        MOCLDY    67  42  40 NW10      29.84R
DILLON         CLOUDY    63  43  48 CALM      29.85R
W YELLOWSTONE  PTCLDY    68  28  22 SW8       29.93R
THREE FORKS      N/A     63  28  26 N13       29.87R
TWIN BRIDGES     N/A     66  38  35 N13       29.85R
$$

MTZ009-010-012-014-046-048-049-054-040200-
EAST SLOPES AND CENTRAL MONTANA

CITY           SKY/WX    TMP DP  RH WIND       PRES   REMARKS
CUT BANK       CLOUDY    51  45  79 CALM      29.96R
GREAT FALLS    LGT RAIN  50  48  93 N9        29.96R FOG
MALMSTROM AFB  LGT RAIN  52  48  86 NW8       29.95R
HELENA         LGT RAIN  56  46  69 W7        29.92R
$$

MTZ011-013-016-021-045-047-050-051-040200-
NORTH CENTRAL MONTANA

CITY           SKY/WX    TMP DP  RH WIND       PRES   REMARKS
HAVRE          CLOUDY    64  41  42 NE13      29.88S
LEWISTOWN      CLEAR     71  38  29 E12       29.87S
N BAR RANCH      N/A     68  39  34 NE8       29.91S
CHINOOK          N/A     63  41  45 N8        29.88R
FORT BENTON      N/A     55  46  71 NW17G23   29.94R
$$

MTZ017>020-022>027-061-062-040200-
NORTHEAST MONTANA

CITY           SKY/WX    TMP DP  RH WIND       PRES   REMARKS
GLASGOW        PTCLDY    74  35  24 NE21      29.79S
JORDAN           N/A     77  42  28 N12       29.78R
SIDNEY         PTCLDY    79  48  34 N12         N/A
WOLF POINT     MOCLDY    77  41  27 N17G24    29.78R
MALTA            N/A     73  39  29 N12       29.81R
PLENTYWOOD       N/A     73  43  33 N16G23    29.79S
POPLAR           N/A     75  39  27 N16G22    29.77R
$$

MTZ028>42-056>058-040200-
SOUTHCENTRAL AND SOUTHEAST MONTANA

CITY           SKY/WX    TMP DP  RH WIND       PRES   REMARKS
BAKER          MOCLDY    84  47  27 E8        29.75R
BILLINGS       CLOUDY    72  42  34 NE12      29.80R
LIVINGSTON     PTCLDY    71  39  31 E15       29.82R
MILES CITY     PTCLDY    82  44  26 NE14      29.72R
FORSYTH          N/A     77  43  29 N9        29.74R
LAUREL           N/A     73  39  29 N3        29.83R
ROUNDUP          N/A     74  38  27 N7        29.76F
$$

REGIONAL REPORTS...DAKOTAS

CITY           SKY/WX    TMP DP  RH WIND       PRES   REMARKS
WILLISTON      PTCLDY    79  53  40 N15       29.74R
MINOT          PTCLDY    80  68  66 NW10      29.67R
DICKINSON      PTCLDY    81  55  40 NE6       29.70S
BEACH            N/A     81  52  36 N12       29.75R
CROSBY         MOCLDY    73  55  53 N10       29.77R
BISMARCK       CLOUDY    87  58  37 SW12      29.68R
GRAND FORKS    PTCLDY    86  71  60 S15G23    29.70R HX  91
FARGO          CLEAR     86  73  65 SE14G23   29.74R HX  93
BUFFALO SD       N/A     80  53  39 E6        29.68S
RAPID CITY     PTCLDY    80  58  46 N9        29.74R
$$

REGIONAL REPORTS...WYOMING/IDAHO/WASHINGTON

CITY           SKY/WX    TMP DP  RH WIND       PRES   REMARKS
GILLETTE       MOCLDY    84  40  21 S10       29.77R
SHERIDAN       CLOUDY    75  42  30 NW21      29.78R
BUFFALO WY     MOCLDY    78  42  27 N16G23    29.82R
CODY           CLOUDY    68  45  42 N7        29.85S
YELLOWSTONE LA   N/A     65  35  33 VRB6      30.04R
IDAHO FALLS    PTSUNNY   74  37  26 SW9       29.81S
SALMON         CLOUDY    57  41  54 N8        29.88R
BOISE          PTSUNNY   68  36  30 NW14      29.84F
SPOKANE        MOSUNNY   64  27  24 S9        29.92R
$$

REGIONAL REPORTS...ALBERTA

CITY           SKY/WX    TMP DP  RH WIND       PRES   REMARKS
EDMONTON       MOSUNNY   55  36  47 N5        29.97R
CALGARY        PTSUNNY   52  43  71 NE8       29.94S
LETHBRIDGE     PTSUNNY   54  50  87 SE5       29.94S
MEDICINE HAT     N/A     54  50  87 NE6       29.95S
WATERTON GATE    N/A     50  43  76 SW10        N/A
CARDSTON         N/A     48  45  87 S1          N/A
MILK RIVER       N/A     54  50  87 S1          N/A
ONEFOUR          N/A     52  48  87 NW9         N/A
$$

REGIONAL REPORTS...SASKATCHEWAN

CITY           SKY/WX    TMP DP  RH WIND       PRES   REMARKS
SWIFT CURRENT  CLEAR     59  43  55 N9        29.93S
REGINA         MOCLDY    66  41  39 N15G22    29.86R
SASKATOON      CLOUDY    55  46  71 NW5       29.94S
CYPRESS HILLS    N/A     48  41  76 NE6         N/A
VAL MARIE        N/A     64  39  39 NE16G23     N/A
ROCKGLEN         N/A     64  39  39 N15G22      N/A
ASSINIBOIA       N/A     59  36  41 NW6         N/A
$$


USA.gov is the U.S. government's official web portal to all federal, state and local government web resources and services.